GFSFLT2_sfc_dewp_120.txt.gz
Dewpoint
70 70 71 70 70 70 70 70 70 71 71 71 71 71 71 71 71 71 72 72 71 71 71 70 69 68 68 68 68 68 67 65
69 69 70 70 70 69 70 70 70 70 70 70 70 70 70 70 70 71 71 71 71 71 70 70 69 68 68 67 67 68 66 65
68 68 69 69 69 70 70 70 70 69 70 70 69 71 70 70 70 70 70 70 70 70 70 69 68 68 67 67 67 67 66 67
69 68 68 68 69 69 69 70 70 70 71 70 71 70 70 70 70 69 69 69 69 69 69 68 68 67 67 67 66 67 66 66
70 69 68 68 68 68 68 68 68 69 70 70 70 70 69 70 70 69 69 69 69 69 69 68 68 67 66 66 66 66 66 65
70 70 69 68 68 67 68 68 67 68 69 70 69 69 69 69 69 68 68 69 68 68 68 68 67 67 66 66 66 66 65 65
67 68 68 69 69 68 68 67 67 67 67 69 70 69 69 69 68 68 68 68 68 68 68 68 67 67 66 66 66 66 65 66
59 59 61 67 67 68 68 68 67 68 67 67 69 68 68 68 68 68 68 68 68 68 67 67 67 67 66 66 66 66 65 65
55 55 56 57 62 63 65 67 68 68 68 68 68 68 67 67 67 67 68 68 68 67 67 67 66 66 65 65 65 65 65 65
53 53 53 53 55 58 59 61 64 64 66 68 69 68 68 66 66 66 66 67 67 67 66 66 65 65 65 64 64 64 64 65
49 49 50 51 51 54 55 56 57 58 61 65 67 65 67 67 66 66 65 66 67 66 66 65 64 64 64 64 64 64 64 64
46 46 47 48 48 48 49 51 51 55 57 61 62 65 64 67 67 67 65 65 66 66 66 65 64 63 63 63 63 63 63 63
44 44 45 45 45 45 46 46 48 50 53 55 56 59 61 62 66 66 66 65 65 65 65 63 62 63 61 59 60 61 62 62
42 42 42 43 43 43 45 44 48 48 50 48 52 50 52 56 58 62 65 65 65 64 64 62 64 63 61 57 57 58 60 61
40 40 40 40 41 41 41 42 43 44 43 44 45 47 49 52 55 58 61 64 64 64 64 62 62 62 62 59 54 54 55 58
39 39 38 37 39 38 39 39 39 41 41 42 42 44 44 48 51 53 55 58 63 63 64 63 63 61 62 62 58 56 53 53
36 37 36 36 36 37 37 36 37 38 39 39 40 41 43 45 48 50 53 55 58 63 62 63 62 60 60 62 58 57 55 53
34 34 34 34 35 35 35 35 35 35 36 37 39 40 41 43 45 48 50 52 56 60 63 62 61 60 59 60 60 57 56 54
31 32 32 32 32 32 32 33 34 34 35 36 37 38 39 41 42 44 45 48 52 54 59 62 61 61 60 60 60 59 59 57
31 31 31 30 31 31 32 32 33 34 35 35 37 37 38 39 41 42 44 45 48 50 53 61 62 61 60 61 61 61 61 58

GFSFLT2_sfc_dewp_126.txt.gz
Dewpoint
69 69 70 70 70 70 69 70 70 70 71 71 71 71 71 71 71 72 72 72 72 71 71 70 70 69 68 67 67 68 66 65
67 68 69 69 69 69 69 69 69 70 70 70 69 69 70 70 70 71 72 72 71 71 70 69 69 68 67 67 67 67 66 65
67 67 67 68 68 69 69 70 69 69 69 69 68 69 69 69 69 69 70 70 70 70 70 69 68 67 67 67 67 67 66 66
66 66 67 67 69 68 68 70 70 69 69 69 69 69 68 69 69 68 69 69 69 69 69 68 68 67 67 67 66 66 66 66
67 66 66 66 67 67 69 69 69 70 69 69 70 69 69 69 68 68 68 68 69 69 68 68 67 66 66 66 66 65 65 65
63 66 65 65 66 67 67 68 68 69 69 69 69 68 68 68 67 68 68 68 69 69 69 69 68 66 66 65 65 65 65 65
63 64 66 65 65 65 65 66 67 68 68 68 68 67 67 68 67 68 68 68 69 68 68 68 67 67 66 65 65 65 65 65
58 61 67 68 67 67 66 65 65 66 66 67 68 68 68 68 67 67 67 67 68 68 67 67 66 66 66 66 65 65 65 65
52 53 54 57 59 60 61 64 65 65 65 64 66 68 67 67 66 67 66 67 67 67 67 67 67 66 65 66 66 65 65 65
46 47 47 48 51 54 54 56 57 59 61 62 62 63 65 65 65 65 66 67 67 67 67 66 66 65 65 65 65 65 65 65
42 42 42 44 45 50 49 51 52 54 55 55 56 56 55 60 64 64 66 65 66 66 66 66 65 65 65 65 65 65 65 65
39 38 38 40 42 44 46 45 47 51 49 51 50 51 51 53 59 61 61 61 62 64 64 65 65 65 65 64 64 64 64 64
35 36 36 37 38 38 43 42 45 47 44 47 46 46 49 49 51 54 57 60 60 60 60 60 62 64 63 61 61 62 63 64
35 34 34 34 35 36 38 39 43 44 40 42 43 43 46 45 48 50 53 54 56 61 59 58 59 62 61 59 57 58 61 62
33 33 32 33 33 33 34 37 37 39 36 38 38 40 42 45 47 48 49 51 53 55 57 60 58 61 62 60 55 54 56 60
32 32 31 31 32 32 32 33 33 35 35 36 37 39 41 43 44 45 46 48 50 52 55 57 59 58 58 62 62 58 54 53
31 32 32 31 31 32 31 31 32 33 34 34 36 38 39 40 42 43 43 45 46 47 49 51 55 56 60 59 60 59 58 54
30 30 31 32 32 32 31 31 31 31 33 33 35 35 37 38 40 40 41 41 42 44 46 47 49 53 56 59 58 57 56 56
30 30 31 31 31 31 31 30 31 31 31 32 33 34 35 36 38 38 39 40 41 43 43 44 45 47 49 54 60 58 58 56
31 30 30 31 31 30 30 30 31 31 31 31 32 34 34 35 37 39 39 41 42 43 44 44 45 46 47 50 56 60 59 57

GFSFLT2_sfc_dewp_129.txt.gz
Dewpoint
71 71 71 70 69 69 69 70 70 70 70 70 71 71 71 72 72 72 72 72 71 72 71 70 70 69 69 68 67 68 67 66
70 71 72 72 72 69 69 69 69 70 70 70 70 70 70 71 71 71 72 72 71 71 70 70 70 69 68 67 67 68 67 67
70 70 71 71 71 71 70 70 69 69 70 69 68 70 70 70 69 70 71 70 70 70 70 69 68 68 67 67 67 66 66 66
70 70 70 70 69 71 71 71 71 71 71 71 71 71 70 69 69 68 69 69 68 69 68 68 68 67 66 67 66 67 66 66
69 70 70 70 69 70 70 70 70 70 71 71 71 70 70 70 69 69 69 69 71 70 70 70 69 68 67 67 67 67 66 67
65 68 69 70 69 70 70 70 69 69 71 71 71 71 70 68 68 69 70 68 69 70 70 70 70 69 69 68 68 67 66 67
62 66 66 68 69 70 70 69 68 68 70 69 70 70 70 70 69 68 68 69 68 69 69 69 69 69 69 68 67 67 67 67
53 53 57 64 67 68 68 68 69 69 69 68 69 69 70 69 69 69 69 69 68 70 69 68 68 69 68 68 68 68 67 68
45 48 49 52 56 59 61 63 64 66 65 65 67 69 70 69 69 68 69 69 68 68 68 69 68 67 67 67 68 68 67 67
41 41 43 46 49 54 55 57 59 58 60 61 62 61 62 67 67 67 67 68 68 67 67 66 67 67 67 66 66 67 67 67
38 39 40 42 44 48 49 51 53 50 52 53 52 52 54 58 63 65 66 65 66 65 63 65 66 66 66 66 67 66 67 67
36 37 38 39 40 43 44 42 46 44 44 48 47 47 49 50 54 57 61 63 64 63 61 63 67 67 66 66 67 67 67 67
35 35 37 35 35 36 39 39 44 44 41 43 44 44 46 48 50 52 55 58 61 62 64 63 62 64 64 64 65 66 65 65
34 33 34 34 34 34 36 38 40 43 39 40 41 42 44 45 47 48 50 52 54 57 61 61 61 63 61 61 57 61 63 64
33 33 33 34 35 34 34 36 36 36 35 36 38 41 43 44 44 46 48 48 50 52 55 57 58 61 62 60 57 56 59 62
32 33 33 34 35 34 34 32 32 34 35 35 37 39 40 42 43 44 45 45 46 48 49 52 55 57 61 63 61 60 56 56
31 32 32 32 33 34 33 33 33 34 34 35 36 37 38 39 41 41 42 43 44 46 47 48 50 53 56 61 59 59 61 58
32 32 32 32 32 32 33 32 32 32 33 33 34 34 35 37 37 39 39 40 41 43 43 44 46 48 50 54 59 57 57 58
31 31 31 31 31 32 32 32 32 32 32 32 32 33 34 35 36 37 37 39 40 41 43 43 44 44 46 49 52 55 59 57
30 30 30 30 31 31 31 32 31 31 31 30 31 32 32 34 34 35 36 37 39 40 41 43 44 44 44 46 48 51 53 59

GFSFLT2_sfc_dewp_135.txt.gz
Dewpoint
68 72 71 71 71 71 71 71 71 71 71 72 73 73 72 72 72 72 73 72 73 72 72 72 71 70 69 69 68 69 66 63
66 70 72 73 72 70 70 71 71 70 71 71 71 72 72 72 72 72 71 72 72 72 72 71 70 69 69 69 68 68 65 63
62 67 69 73 72 72 70 70 71 71 70 70 69 68 68 70 70 70 71 70 71 71 71 70 69 69 69 68 68 65 62 62
55 64 67 69 67 71 72 71 70 70 69 69 69 68 66 65 67 69 70 70 70 70 70 69 69 66 66 68 66 63 61 59
59 63 68 67 65 64 64 64 67 72 72 72 71 72 71 67 68 71 69 69 68 68 68 69 68 67 63 66 64 62 61 58
55 57 63 67 69 71 69 69 71 70 71 72 72 73 72 71 71 71 71 71 68 67 66 67 67 66 65 65 65 62 59 58
53 55 59 62 65 66 69 71 71 71 70 70 70 71 71 71 72 70 70 71 69 69 69 68 68 68 67 67 65 65 64 61
49 51 55 58 61 62 63 64 64 65 64 62 62 62 62 66 71 70 71 71 72 70 69 67 68 69 68 68 67 66 66 68
46 48 51 54 57 59 60 59 59 60 59 59 58 58 59 60 65 69 69 70 70 69 67 69 70 69 67 68 68 67 67 66
44 43 46 49 53 54 53 55 54 55 55 55 56 56 57 59 62 64 64 64 67 67 66 64 65 67 67 67 67 67 67 67
41 44 44 45 47 51 50 51 52 52 50 50 51 52 53 54 55 57 59 61 63 66 66 67 66 66 65 66 67 67 67 65
40 41 42 42 41 43 44 43 47 47 45 46 48 47 49 50 50 53 54 55 57 60 62 63 65 64 64 64 64 65 68 68
39 41 42 40 37 37 38 39 42 41 41 44 45 46 48 48 47 49 50 51 53 55 56 59 60 63 62 62 63 64 65 65
40 40 40 40 38 39 39 39 39 39 39 41 42 44 45 45 47 47 48 48 50 51 53 53 56 58 60 60 58 59 63 64
39 39 39 40 41 39 39 39 39 38 38 37 40 42 43 45 44 46 46 46 46 49 50 51 50 52 57 58 56 54 56 59
39 37 36 37 39 38 39 37 36 37 37 38 39 41 41 42 44 43 43 44 45 45 45 48 49 48 50 51 58 59 55 54
38 37 36 37 38 39 37 38 36 36 37 38 38 38 39 40 41 41 41 40 42 43 44 44 45 45 46 48 50 52 55 58
37 36 35 37 37 37 38 37 36 35 36 35 35 36 36 38 38 38 38 38 39 39 41 41 41 42 44 45 45 47 47 52
35 35 35 36 36 36 36 35 35 34 34 33 33 33 34 35 35 35 35 36 37 38 38 40 40 40 41 42 44 45 46 47
35 34 34 35 35 35 35 34 32 32 32 32 31 31 31 33 33 33 34 34 36 36 37 38 38 41 40 42 42 42 44 45

GFSFLT2_sfc_dewp_138.txt.gz
Dewpoint
74 72 71 71 71 71 71 71 71 71 71 72 73 73 72 73 73 72 72 72 72 73 72 72 71 70 69 68 68 68 67 65
69 73 73 73 72 70 70 71 71 70 70 71 71 72 72 72 72 72 72 72 72 72 72 71 71 70 69 68 68 68 67 64
66 67 70 73 75 72 70 71 71 70 70 70 69 70 70 71 71 70 71 70 71 71 71 70 70 69 69 68 68 67 64 64
60 62 66 69 67 72 73 72 71 71 70 71 70 70 69 67 68 69 69 69 70 70 70 69 69 69 68 68 68 66 64 62
55 57 62 66 68 70 71 71 71 72 71 71 71 71 71 70 70 69 70 69 70 69 70 70 69 68 66 67 67 65 64 62
54 55 59 62 65 67 68 69 71 70 69 66 70 71 71 70 69 69 68 69 69 69 67 67 68 67 67 65 66 65 63 62
52 54 57 60 63 63 65 64 64 64 62 62 61 62 63 66 69 70 68 69 68 68 67 67 66 67 67 65 65 65 63 64
49 50 54 57 60 62 61 61 61 61 59 58 59 59 59 60 63 66 68 68 69 68 67 67 66 67 67 67 67 66 66 65
47 49 52 54 57 58 60 59 58 58 57 56 56 55 57 58 61 64 65 65 65 66 66 65 63 59 62 65 67 66 66 67
46 44 47 50 52 56 55 56 57 57 57 54 53 54 53 54 58 61 60 61 65 65 66 65 61 61 61 61 66 67 66 66
43 46 45 48 49 50 52 52 52 53 50 49 51 50 51 51 51 53 54 55 57 61 61 62 63 62 61 64 64 65 65 65
43 44 45 46 45 45 45 46 49 50 47 48 49 47 49 49 49 50 51 51 52 53 55 59 61 61 63 63 64 64 65 65
42 43 45 43 42 42 43 43 44 46 43 47 45 46 47 46 47 48 49 48 50 51 53 53 55 59 59 60 61 62 63 64
42 41 42 42 41 42 44 44 44 43 43 45 44 45 45 43 45 45 45 45 46 47 49 50 50 53 56 57 55 56 60 62
39 38 38 41 41 39 40 42 42 39 39 40 41 43 43 45 44 44 43 43 43 44 45 45 46 48 52 54 52 52 54 57
39 38 38 39 41 40 40 38 36 38 38 38 39 40 41 42 41 40 41 40 41 41 42 42 43 44 46 48 52 53 51 50
41 39 38 39 39 40 38 37 37 37 37 37 37 38 38 38 37 37 37 37 38 38 38 38 39 40 42 43 44 46 49 50
41 38 37 38 39 38 38 37 36 35 35 34 34 34 35 35 34 35 35 36 35 37 36 38 38 39 39 39 40 43 43 45
38 37 36 37 37 37 36 35 35 34 33 33 32 32 32 32 33 33 32 34 35 35 36 35 37 37 38 39 38 39 41 41
36 35 35 36 37 36 35 34 33 33 33 32 32 31 32 32 32 32 32 32 33 34 34 34 35 37 36 37 38 39 39 39